Torna al catalogo

STARLINK-11581

AttivoComunicazioniVLEO
NORAD 63144·PAYLOAD·🇺🇸 United States

Lanciato Mar 3, 2025 da Cape Canaveral Space Force Station

Loading…

Prossimi Passaggi (prossime 24 ore)

TLE

AggiornatoSource: CelesTrak SupGP

Epoca: Sep 14, 2026, 21:11 UTC

1 63144C 25043N   26257.88312500  .00041711  00000+0  32397-3 0  2578
2 63144  43.0007 190.3470 0001327 257.2456 224.2576 15.70818190    11

Traccia STARLINK-11581 in tempo reale con AllMySat

Download on the App Store